NANOSAT 1B

Satellite information

Favourite Embed

Satellite Type and Status

PAYLOADIN ORBIT

Key statistics

Satellite NANOSAT 1B at a glance.

Uptime

5982

Days in orbit

Revolutions

≈ 14.9

Per day

Orbit

SSO

Sun Synchronous Orbit

Inclination

98.1

Latest

Satellite identification and parameters

Extended collection of information and parameters for NANOSAT 1B.

Object identification

Identified? True

Debris? False

Object name: NANOSAT 1B

International designator: 2009-041E

Object number (NORAD): 35685

Object ID (CCSDS): 35685

Country: SPAIN (SPN)

Current information (Y/N): Y

RCS size: MEDIUM

Orbital parameters

Period: 96.499 minutes

Inclination: 98.1025 deg

SMA: 6969.058 km

Apoapsis: 626.73 km

Periapsis: 555.116 km

RAAN: 95.7094 deg

Eccentricy: 0.00513802

Argument of periapsis: 56.4785 deg

Mean anomaly: 304.1326 deg

Mean motion: 14.92250265 rev/day

Mean motion (dot): 0.0000309 rev/day2

B* drag term: 0.00030138647 1/REarth

Two-line elements (TLE)

Creation date: Dec. 14, 2025, 3:07 a.m.

Reference frame: TEME

Reference center: EARTH

Epoch: Dec. 13, 2025, 12:56 p.m. UTC

TLE line 0: 0 NANOSAT 1B

TLE line 1: 1 35685U 09041E 25347.53951929 .00003090 00000-0 30139-3 0 9996

TLE line 2: 2 35685 98.1025 95.7094 0051380 56.4785 304.1326 14.92250265886726

Live tracking on map

Real-time ground track for satellite NANOSAT 1B.

In-orbit conjunctions

There are no conjunctions computed for NANOSAT 1B, at the moment. Check back to stay up to date, as we update our databases every day.

Go to all conjunctions

Associated space launch

Emirati Earth observation satellite. Launched with 5 secondary payloads.

NANOSAT 1B was lifted into orbit during the mission ‘Dnepr | DubaiSat 1’, on board a Dnepr space rocket.

The launch took place on July 29, 2009, 6:46 p.m. from 109/95.

For more information about the launch, click the button.

Launch to space Dnepr | DubaiSat 1
Dnepr | DubaiSat 1

Agency: N/A

Status: Launch Successful

Launch date: July 29, 2009, 6:46 p.m. UTC

Rocket: Dnepr

Launch pad: 109/95

Location: Baikonur Cosmodrome, Republic of Kazakhstan

...

Latest news about this satellite

There are no fresh news available about this satellite. Check back as we update our databases every day.


Newsletter sign-up

Weekly statistics, charts and insights to help you stay on top of the space industry.